Location: Warszawa
(52.2297°N, 21.0122°E)
Time: 13:42:10
(UTC+02:00)

OTV 5 (USA 277) - Visible Passes

Search period start: 16 October 2018 00:00
Search period end: 26 October 2018 00:00
Orbit: 387 x 394 km, 54.5° (Epoch: 08 September)

Date Brightness Start Highest point End Pass type
(mag) Time Alt. Az. Time Alt. Az. Time Alt. Az.
16 Oct ? 04:26:09 16° SE 04:26:09 16° SE 04:26:54 10° SE visible
16 Oct ? 05:58:34 12° WSW 05:59:07 13° SW 06:00:35 10° SSW visible
17 Oct ? 05:04:52 14° S 05:04:52 14° S 05:05:33 10° SSE visible
25 Oct ? 18:57:39 10° S 18:58:52 15° SSE 18:58:52 15° SSE visible
